Regional Weather Roundup
Issued by NWS Sterling, VA

Home | Current Version | Previous Version | Text Only | Print | Product List | Glossary Off
Versions: 1 2 3 4 5 6 7 8 9 10 11 12 13 14 15 16 17 18 19 20 21 22 23 24 25 26 27 28 29 30 31 32 33 34 35 36 37 38 39 40 41 42 43 44 45 46 47 48 49 50

000
ASUS41 KLWX 292010
RWRLWX

REGIONAL WEATHER ROUNDUP
NATIONAL WEATHER SERVICE BALTIMORE MD/WASHINGTON DC
400 PM EDT SUN MAY 29 2016

Note: "FAIR" indicates few or no clouds below 12,000 feet
with no significant weather and/or obstructions to visibility.
 TC=TEMPERATURE CELSIUS

 * =Non NWS site. Station does not report precipitation (e.g. rain,
    snow, etc.), thunder, or fog.

DCZ001-MDZ009-015-VAZ040>042-051-053>054-292100-
WASHINGTON METRO

CITY           SKY/WX    TMP DP  RH WIND       PRES   REMARKS
WASHINGTON NAT NOT AVBL
DULLES         CLOUDY    81  62  52 S5        30.08F
ANDREWS AFB    LGT RAIN  79  68  69 SE9       30.07F
FT BELVOIR     FAIR      81  67  63 SE1       30.07F
QUANTICO       LGT RAIN  80  68  66 S3        30.08F
COLLEGE PARK*  PTSUNNY   82  64  54 SE3       30.07F
LEESBURG*      FAIR      84  64  51 S9        30.08F
MANASSAS*      CLOUDY    81  66  61 SE5       30.08F

$$

MDZ006>007-011-014-292100-
BALTIMORE METRO

CITY           SKY/WX    TMP DP  RH WIND       PRES   REMARKS
BWI AIRPORT    PTSUNNY   83  65  54 S7        30.07F
MD SCIENCE CTR   N/A     83  66  56 MISG      30.07F
MARTIN STATE   PTSUNNY   82  70  65 SE9       30.09F
ANNAPOLIS      MOSUNNY   80  67  64 S13       30.07F
FORT MEADE*    MOSUNNY   81  64  57 CALM      30.09F

$$

MDZ012-015-019>023-292100-
MARYLAND EASTERN SHORE

CITY           SKY/WX    TMP DP  RH WIND       PRES   REMARKS
OCEAN CITY     CLOUDY    73  70  90 VRB6      30.11F
SALISBURY      CLOUDY    78  73  84 S6        30.10F
BAY BRIDGE AP* MOSUNNY   81  70  69 W6        30.07F
CAMBRIDGE*     CLOUDY    73  72  94 SE7       30.09F
EASTON*        HVY RAIN  77  75  94 SE10      30.12F

$$

MDZ017>025-292100-
SOUTHERN MARYLAND

CITY           SKY/WX    TMP DP  RH WIND       PRES   REMARKS
PATUXENT RIVER LGT RAIN  74  71  91 SE5       30.08F
ST INIGOES     LGT RAIN  75  72  90 SE7       30.08F
LEONARDTOWN*   CLOUDY    73  70  88 CALM      30.10F

$$

MDZ003>005-292100-
NORTH CENTRAL MARYLAND

CITY           SKY/WX    TMP DP  RH WIND       PRES   REMARKS
FREDERICK*     SUNNY     82  64  54 SW8       30.10F
HAGERSTOWN APT CLOUDY    83  57  41 SW9       30.08F
WESTMINSTER*   CLOUDY    86  79  79 S8        30.09F VSB 1   HX  99

$$

MDZ501>502-292100-
WESTERN MARYLAND

CITY           SKY/WX    TMP DP  RH WIND       PRES   REMARKS
OAKLAND*       CLOUDY    63  55  77 SW6       30.20S
CUMBERLAND*    PTSUNNY   77  61  57 NW14G21   30.13S

$$

VAZ025>031-292100-
SHENANDOAH VALLEY

CITY           SKY/WX    TMP DP  RH WIND       PRES   REMARKS
WINCHESTER*    PTSUNNY   79  63  57 S6        30.09F
FRONT ROYAL*   MOCLDY    79  66  65 CALM      30.08F
LURAY*         FAIR      77  63  61 S3        30.10F
NEW MARKET*    CLOUDY    77  64  63 SW6       30.09F
STAUNTON*      LGT RAIN  72  63  73 W6        30.14F
WAYNESBORO*    CLOUDY    69  58  68 W5        30.15S

$$

WVZ021-048>050-054>055-292100-
EASTERN WEST VIRGINIA PANHANDLE

CITY           SKY/WX    TMP DP  RH WIND       PRES   REMARKS
MARTINSBURG    FAIR      80  60  50 SE3       30.07F
PETERSBURG*    DRIZZLE   75  67  77 W7        30.12F

$$

VAZ036>039-050-292100-
CENTRAL FOOTHILLS

CITY           SKY/WX    TMP DP  RH WIND       PRES   REMARKS
CHARLOTTESVILL FAIR      80  63  55 CALM      30.08F
CULPEPER*      LGT RAIN  80  67  64 CALM      30.09F
ORANGE*        PTSUNNY   77  68  73 CALM      30.11F
GORDONSVILLE*  MOCLDY    77  69  76 E3        30.08F
WARRENTON*     LGT RAIN  79  67  66 CALM      30.08F

$$

VAZ055>057-292100-
NORTH AND CENTRAL PIEDMONT

CITY           SKY/WX    TMP DP  RH WIND       PRES   REMARKS
FREDERICKSBRG* LGT RAIN  79  71  77 SE9G16    30.08R
STAFFORD*      FAIR      79  66  63 E7        30.12F

$$

NCZ024-NYZ072-PAZ021-071-VAZ022-071-292100-
OTHER REGIONAL OBSERVATIONS

CITY           SKY/WX    TMP DP  RH WIND       PRES   REMARKS
NEW YORK CITY  MOSUNNY   79  61  53 VRB7      30.11F
PHILADELPHIA   PTSUNNY   86  63  45 S12       30.07F
PITTSBURGH     CLOUDY    75  58  55 SE5       30.08F
ROANOKE        CLOUDY    73  56  54 NE6       30.15F
RICHMOND       RAIN      72  71  97 SE6       30.08F FOG
RALEIGH        CLOUDY    74  71  91 VRB6      30.03F

$$

ANZ530>537-292100-
MARINE OBSERVATIONS

STATION/POSITION TIME  TEMP    WIND        PRES
                       AIR SEA DIR/SP/G
                 (UTC) (F)     (DEG/KT/KT) (MB)
THOMAS PT LIGHT  2000   74 70  200/  6/  6 1019.8F
BALT KEY BRIDGE  1900   77     110/ 11/ 12 1018.8F
COVE POINT       1900   73     180/ 12/ 13 1020.0F
LEWISETTA        1900   73 74  120/  7/  9 1018.9S
SOLOMONS ISLAND  1900   72 70  140/ 13/ 15   N/A
PINEY POINT      1900          160/ 11/ 12   N/A

$$




USA.gov is the U.S. government's official web portal to all federal, state and local government web resources and services.